Погода в Абботтабаде

Пакистан     34˚10′25″N   73˚14′16″E
темп.,
°C
ветер,
м/с
пор.,
м/с
влажн.,
%
обл.,
%
осадки,
мм/ч
давл.,
гПа
погр.,
м
16 января, сб
сб1623:00+7˚в22410 0.0 101922
02:00+6˚в22370 0.0 101922
05:00+6˚в33350 0.0 101823
08:00+6˚в33310 0.0 101929
11:00+14˚св22220 0.0 1018243
14:00+17˚ссз111833 0.0 1015469
17:00+12˚ссв003250 0.0 101523
20:00+9˚всв23390 0.0 101622
17 января, вс
вс1723:00+7˚в33370 0.0 101527
02:00+7˚в33360 0.0 101530
05:00+6˚в33320 0.0 101531
08:00+6˚в33310 0.0 101733
11:00+15˚всв122229 0.0 1017290
14:00+17˚з222395 0.0 1015748
17:00+11˚зюз124147 0.0 101522
20:00+8˚юв11460 0.0 101822
18 января, пн
пн1823:00+7˚вюв12480 0.0 101922
02:00+7˚вюв12480 0.0 101922
05:00+6˚вюв22444 0.0 101922
08:00+6˚вюв224287 0.0 102023
11:00+13˚ссз113058 0.0 1021580
14:00+14˚з22290 0.0 10191109
17:00+10˚юз12480 0.0 101822
20:00+7˚в11503 0.0 101922
19 января, вт
вт1923:00+6˚в22492 0.0 101922
02:00+6˚в22430 0.0 101822
05:00+5˚в22380 0.0 101623
08:00+6˚в22370 0.0 101828
11:00+13˚св11240 0.0 1017404
14:00+15˚зсз22210 0.0 10151191
17:00+11˚зюз11380 0.0 101422
20:00+8˚в11370 0.0 101622
20 января, ср
ср2023:00+7˚всв22380 0.0 101722
02:00+6˚в23360 0.0 101723
05:00+5˚в33350 0.0 101726
08:00+5˚в33370 0.0 101937
11:00+13˚св23240 0.0 1018340
14:00+16˚сз21190 0.0 1015999
17:00+11˚зюз11320 0.0 101622
20:00+8˚всв22350 0.0 101922